sat.trackr.live / text

‹ back to catalog

STARLINK-5894

NORAD 55965 · 2023-037BD

PAYLOAD ACTIVE UNKNOWN

§ Identity

Operator
Country
US
Launch date
2023-03-17
Launch site
AFWTR
Launch vehicle
Mass (kg)
RCS (m²)

Purposes: comms

External: N2YO · Heavens-Above · Gunter

§ Orbital elements

Epoch: 2026-05-25T02:38:20.251968Z

Period
96.11 min
Inclination
70.0007°
Eccentricity
0.0002941
Mean motion
14.98329637 rev/d
Perigee alt
570.0 km
Apogee alt
574.1 km
Semi-major
6,950.2 km
B*
2.8535e-5
RAAN
71.6379°
Arg perigee
270.5011°
Mean anomaly
89.5811°
Rev number
17,592

§ Raw data

STARLINK-58941 55965U 23037BD  26145.10995662  .00000248  00000+0  28535-4 0  99912 55965  70.0007  71.6379 0002941 270.5011  89.5811 14.98329637175929

JSON: /api/v1/satellites/55965 · /tle

For live sub-satellite position, see the globe view (requires WebGL).

§ Visibility from observer

Set your observer location to see the next 7 days of passes ≥ 10°. The values pass through the URL so the page stays shareable.

No JS? Fill the form by hand. The geolocation button needs JavaScript.